シンガー・ブルースター彗星

105P/Singer Brewster (2012)

English version
Home page
Updated on May 15, 2012

---------------------------------------------------------------------

・ プロフィール

・ 写真集

・ 軌道要素

The following orbital elements are taken from MPC 65937:

Epoch 2012 Mar. 14.0 TT = JDT 2456000.5
T 2012 Feb. 26.1574 TT                                  MPC
q   2.050860             (2000.0)            P               Q
n   0.1523644      Peri.   46.6702      -0.5157094      +0.8560778
a   3.471738       Node   192.4185      -0.8249507      -0.5069626
e   0.409270       Incl.    9.1706      -0.2313012      -0.1005968
P   6.47
From 261 observations 1986-2006, mean residual 0".7.  Nongravitational
     parameters A1 = +0.37, A2 = -0.0703.

・ 星図

・ 光度変化

        m1 = 13.8 + 5 logΔ + 7.5 log r

---------------------------------------------------------------------

軌道要素はMPCのEphemerides and Orbital Elementsに掲載されたものです。
星図はステラナビゲータ Ver.8 (アストロアーツ) で作成したものです。
光度グラフはComet for Windowsで作成したものです。

---------------------------------------------------------------------

Copyright(C) Seiichi Yoshida (comet@aerith.net). All rights reserved.